Regional Weather Roundup
Issued by NWS

Home | Current Version | Previous Version | Graphics & Text | Print | Product List | Glossary On
Versions: 1 2 3 4 5 6 7 8 9 10 11 12 13 14 15 16 17 18 19 20 21 22 23 24 25 26 27 28 29 30 31 32 33 34 35 36 37 38 39 40 41 42 43 44 45 46 47 48 49 50
681
ASUS43 KIND 250509
RWRIN

WEATHER ROUNDUP FOR INDIANA
NATIONAL WEATHER SERVICE INDIANAPOLIS IN
100 AM EDT WED APR 25 2018

NOTE: "FAIR" INDICATES FEW OR NO CLOUDS BELOW 12,000 FEET WITH NO
SIGNIFICANT WEATHER AND/OR OBSTRUCTIONS TO VISIBILITY.

* - STATION DOES NOT REPORT WEATHER SUCH AS PRECIPITATION OR FOG.

+ - STATION NOT QUALITY CONTROLLED BY THE NATIONAL WEATHER SERVICE.
    USE DATA WITH CAUTION...ESPECIALLY DEWPOINT AND RELATIVE
    HUMIDITY OBSERVATIONS.

INZ001>003-010>013-019-020-250600-
NORTHWEST INDIANA

CITY           SKY/WX    TMP DP  RH WIND       PRES   REMARKS
GARY /AIRPORT/ FAIR      44  42  95 NW5       30.02S FOG
KNOX *+        FAIR      46  45  93 NW5       29.98S
LA PORTE +     FAIR      45  43  94 NW5       29.99S
MICHIGAN CITY+ FAIR      43  43 100 CALM      30.00F
MONTICELLO +   CLOUDY    53  49  86 N6        29.97S
RENSSELAER +   FAIR      50  43  76 N6        29.98F
VALPARAISO     FAIR      48  45  89 N7        29.99F

$$

LMZ046-743>745-250600-
SOUTHERN LAKE MICHIGAN

STATION/POSITION TIME  TEMP    WIND        PRES    WAVE
                       AIR SEA DIR/SP/G            HT
                 (UTC) (F)     (DEG/KT/KT) (MB)    (FT)
BURNS HARBOR     0440   42     320/  4/  7 1016.3F
MICHIGAN CITY    0440   43     300/  2/  3   N/A

$$

INZ004-005-014>016-021>024-250600-
NORTH CENTRAL INDIANA

CITY           SKY/WX    TMP DP  RH WIND       PRES   REMARKS
GOSHEN         CLOUDY    52  51  97 CALM      29.96F FOG
LOGANSPORT +   CLOUDY    54  48  82 N5        29.97S
ROCHESTER +    CLOUDY    55  52  88 NW5       29.97S
SOUTH BEND     CLOUDY    52  48  86 N7        29.98F
WARSAW +       CLOUDY    52  52 100 N5        29.96S

$$

INZ006>009-017-018-025>027-250600-
NORTHEAST INDIANA

CITY           SKY/WX    TMP DP  RH WIND       PRES   REMARKS
ANGOLA *+      CLOUDY    50  50 100 CALM      29.95F FOG
AUBURN +       CLOUDY    50  50 100 N5        29.96F FOG
FORT WAYNE     CLOUDY    52  51  97 N7        29.95F
HUNTINGTON +   CLOUDY    51  50  95 N3        29.95S

$$

INZ028-029-035-036-043>045-051>053-250600-
WEST CENTRAL INDIANA

CITY           SKY/WX    TMP DP  RH WIND       PRES   REMARKS
CRAWFORDSVL +  CLOUDY    52  52  98 NW6       29.96F
GREENCASTLE +  CLOUDY    52  50  93 CALM      29.97S
LAFAYETTE      MOCLDY    54  49  83 N7        29.96F
TERRE HAUTE    FAIR      51  50  96 CALM      29.97S

$$

INZ030>032-037>040-046>048-054>057-064-065-250600-
CENTRAL INDIANA

CITY           SKY/WX    TMP DP  RH WIND       PRES   REMARKS
FISHERS *+     CLOUDY    52  52 100 N5        29.95S
FRANKFORT +    CLOUDY    56  52  87 N5        29.98S
GREENWOOD *+   CLOUDY    53  51  94 N6        29.95S
INDIANAPOLIS   CLOUDY    53  51  93 NW7       29.95S
-EAGLE CREEK   CLOUDY    54  50  86 N5        29.94F
KOKOMO +       CLOUDY    53  51  93 NW6       29.96F
MARION +       CLOUDY    52  50  94 CALM      29.95F
MT COMFORT *+  CLOUDY    52  52 100 N6        29.95R
SHELBYVILLE    CLOUDY    54  50  86 N7        29.94R
ZIONSVILLE +   CLOUDY    52  50  95 N6        29.96S

$$

INZ033-034-041-042-049-050-058-059-250600-
EAST CENTRAL INDIANA

CITY           SKY/WX    TMP DP  RH WIND       PRES   REMARKS
MUNCIE         CLOUDY    54  51  90 N10       29.94S FOG
RICHMOND +     CLOUDY    50  50 100 N5        29.93S FOG

$$

INZ060-061-067>069-081>083-085>088-250600-
SOUTHWEST INDIANA

CITY           SKY/WX    TMP DP  RH WIND       PRES   REMARKS
EVANSVILLE     FAIR      55  55 100 W5        29.98S FOG
HUNTINGBURG +  CLOUDY    55  52  89 N5        29.96F
WASHINGTON +   CLOUDY    54  52  94 NW6       29.96S

$$

INZ062-063-066-070>080-084-089>092-250600-
SOUTH CENTRAL AND SOUTHEAST INDIANA

CITY           SKY/WX    TMP DP  RH WIND       PRES   REMARKS
BATESVILLE +   CLOUDY    52  52 100 MISG      29.92S
BEDFORD +      CLOUDY    54  52  94 CALM      29.94S
BLOOMINGTON    CLOUDY    54  52  93 CALM      29.95F
FRENCH LICK *+ CLOUDY    52 N/A N/A CALM      29.95F
MADISON *+     CLOUDY    54  52  94 NW3       29.94S
NORTH VERNON + CLOUDY    52  52 100 NW6       29.94S
SEYMOUR +      CLOUDY    55  54  94 NW7       29.94S

$$





USA.gov is the U.S. government's official web portal to all federal, state and local government web resources and services.